| time (UTC) | temp F | wind direction | speed knots | gust knots | rain 1hr in | rain 24hr in | rain mn in | humidity % | barometer mb |
| 20260503193047 | 76 | 39 | 3.5 | 7.8 | 0.00 | 0.00 | 0.00 | 50 | 1011.9 |
| 20260503192535 | 76 | 90 | 1.7 | 7.0 | 0.00 | 0.00 | 0.00 | 51 | 1011.9 |
| 20260503192039 | 76 | 355 | 1.7 | 7.0 | 0.00 | 0.00 | 0.00 | 52 | 1012.0 |
| 20260503191547 | 76 | 26 | 0.9 | 7.0 | 0.00 | 0.00 | 0.00 | 52 | 1012.0 |
| 20260503191039 | 75 | 49 | 3.5 | 7.0 | 0.00 | 0.00 | 0.00 | 51 | 1012.0 |
| 20260503190538 | 76 | 90 | 3.5 | 7.0 | 0.00 | 0.00 | 0.00 | 51 | 1012.1 |
| 20260503190057 | 76 | 42 | 3.5 | 7.0 | 0.00 | 0.00 | 0.00 | 50 | 1012.2 |
| 20260503185535 | 76 | 43 | 1.7 | 4.3 | 0.00 | 0.00 | 0.00 | 52 | 1012.2 |
| 20260503185036 | 75 | 62 | 1.7 | 4.3 | 0.00 | 0.00 | 0.00 | 53 | 1012.3 |
| 20260503184551 | 74 | 116 | 1.7 | 7.8 | 0.00 | 0.00 | 0.00 | 54 | 1012.3 |
| 20260503184036 | 74 | 64 | 2.6 | 7.8 | 0.00 | 0.00 | 0.00 | 54 | 1012.4 |
| 20260503183538 | 74 | 90 | 2.6 | 7.0 | 0.00 | 0.00 | 0.00 | 55 | 1012.4 |
| 20260503183052 | 74 | 48 | 3.5 | 7.8 | 0.00 | 0.00 | 0.00 | 56 | 1012.5 |
| 20260503182539 | 74 | 178 | 1.7 | 7.8 | 0.00 | 0.00 | 0.00 | 55 | 1012.4 |
| 20260503182036 | 74 | 183 | 3.5 | 6.1 | 0.00 | 0.00 | 0.00 | 54 | 1012.5 |
| 20260503181550 | 74 | 183 | 1.7 | 3.5 | 0.00 | 0.00 | 0.00 | 54 | 1012.5 |
| 20260503181036 | 74 | 231 | 0.9 | 6.1 | 0.00 | 0.00 | 0.00 | 54 | 1012.6 |
| 20260503180539 | 73 | 48 | 1.7 | 10.4 | 0.00 | 0.00 | 0.00 | 54 | 1012.6 |
| 20260503180053 | 74 | 41 | 2.6 | 10.4 | 0.00 | 0.00 | 0.00 | 54 | 1012.7 |
| 20260503175538 | 75 | 48 | 3.5 | 10.4 | 0.00 | 0.00 | 0.00 | 51 | 1012.7 |
| 20260503175035 | 76 | 39 | 0.9 | 3.5 | 0.00 | 0.00 | 0.00 | 50 | 1012.7 |
| 20260503174548 | 77 | 107 | 1.7 | 3.5 | 0.00 | 0.00 | 0.00 | 50 | 1012.8 |
| 20260503174039 | 76 | 121 | 0.9 | 2.6 | 0.00 | 0.00 | 0.00 | 50 | 1012.8 |
| 20260503173539 | 76 | 99 | 0.9 | 3.5 | 0.00 | 0.00 | 0.00 | 50 | 1012.8 |
| 20260503173136 | 77 | 156 | 0.9 | 3.5 | 0.00 | 0.00 | 0.00 | 48 | 1012.8 |
| 20260503172538 | 77 | 67 | 0.9 | 2.6 | 0.00 | 0.00 | 0.00 | 48 | 1012.9 |
| 20260503172035 | 77 | 121 | 0.9 | 2.6 | 0.00 | 0.00 | 0.00 | 47 | 1012.9 |
| 20260503171548 | 77 | 71 | 0.9 | 1.7 | 0.00 | 0.00 | 0.00 | 49 | 1013.0 |
| 20260503171036 | 76 | 99 | 0.9 | 1.7 | 0.00 | 0.00 | 0.00 | 50 | 1012.9 |
| 20260503170536 | 75 | 112 | 0.9 | 1.7 | 0.00 | 0.00 | 0.00 | 51 | 1012.9 |
| 20260503150535 | 61 | 193 | 0.9 | 0.9 | 0.00 | 0.00 | 0.00 | 80 | 1013.3 |
| 20260503131035 | 51 | 0 | 0.0 | 1.7 | 0.00 | 0.00 | 0.00 | 94 | 1013.2 |
| 20260503130534 | 51 | 0 | 0.0 | 1.7 | 0.00 | 0.00 | 0.00 | 94 | 1013.2 |
| 20260503110538 | 53 | 344 | 0.9 | 1.7 | 0.00 | 0.00 | 0.00 | 92 | 1013.4 |
| 20260503081556 | 56 | 183 | 1.7 | 2.6 | 0.00 | 0.00 | 0.00 | 90 | 1013.8 |
| 20260503081038 | 56 | 183 | 0.0 | 1.7 | 0.00 | 0.00 | 0.00 | 89 | 1013.9 |
| 20260503080539 | 56 | 171 | 0.0 | 1.7 | 0.00 | 0.00 | 0.00 | 88 | 1013.9 |
| 20260503072536 | 58 | 355 | 0.0 | 3.5 | 0.00 | 0.00 | 0.00 | 88 | 1013.8 |
| 20260503072036 | 58 | 197 | 3.5 | 3.5 | 0.00 | 0.00 | 0.00 | 89 | 1013.7 |
| 20260503071548 | 58 | 188 | 1.7 | 3.5 | 0.00 | 0.00 | 0.00 | 88 | 1013.7 |
| 20260503071035 | 58 | 183 | 1.7 | 2.6 | 0.00 | 0.00 | 0.00 | 87 | 1013.7 |
| 20260503070535 | 58 | 183 | 1.7 | 2.6 | 0.00 | 0.00 | 0.00 | 87 | 1013.7 |
| 20260503055036 | 61 | 28 | 0.0 | 1.7 | 0.00 | 0.00 | 0.00 | 80 | 1013.3 |
| 20260503054545 | 61 | 90 | 0.0 | 1.7 | 0.00 | 0.00 | 0.00 | 81 | 1013.4 |
| 20260503054036 | 61 | 0 | 0.9 | 1.7 | 0.00 | 0.00 | 0.00 | 82 | 1013.4 |
| 20260503053535 | 61 | 200 | 0.9 | 1.7 | 0.00 | 0.00 | 0.00 | 81 | 1013.4 |
| 20260503053045 | 61 | 220 | 0.0 | 1.7 | 0.00 | 0.00 | 0.00 | 78 | 1013.4 |
| 20260503052535 | 62 | 0 | 0.0 | 1.7 | 0.00 | 0.00 | 0.00 | 77 | 1013.4 |
| 20260503052035 | 62 | 90 | 0.0 | 1.7 | 0.00 | 0.00 | 0.00 | 79 | 1013.4 |
| 20260503051542 | 62 | 0 | 0.0 | 1.7 | 0.00 | 0.00 | 0.00 | 82 | 1013.4 |
| 20260503051035 | 63 | 205 | 0.9 | 1.7 | 0.00 | 0.00 | 0.00 | 80 | 1013.3 |
| 20260503050536 | 63 | 183 | 0.0 | 1.7 | 0.00 | 0.00 | 0.00 | 80 | 1013.3 |
| 20260503050051 | 63 | 141 | 0.0 | 1.7 | 0.00 | 0.00 | 0.00 | 78 | 1013.2 |
| 20260503045534 | 63 | 90 | 0.0 | 2.6 | 0.00 | 0.00 | 0.00 | 78 | 1013.2 |
| 20260503045035 | 64 | 183 | 0.0 | 3.5 | 0.00 | 0.00 | 0.00 | 79 | 1013.3 |
| 20260503044548 | 64 | 183 | 1.7 | 3.5 | 0.00 | 0.00 | 0.00 | 79 | 1013.1 |
| 20260503044035 | 64 | 198 | 0.9 | 1.7 | 0.00 | 0.00 | 0.00 | 77 | 1013.1 |
| 20260503043536 | 65 | 165 | 0.9 | 1.7 | 0.00 | 0.00 | 0.00 | 77 | 1013.0 |
| 20260503043046 | 65 | 183 | 0.9 | 1.7 | 0.00 | 0.00 | 0.00 | 75 | 1013.0 |
| 20260503042537 | 65 | 124 | 0.9 | 1.7 | 0.00 | 0.00 | 0.00 | 66 | 1013.1 |
| 20260503042037 | 65 | 90 | 0.9 | 1.7 | 0.00 | 0.00 | 0.00 | 69 | 1013.0 |
| 20260503041546 | 66 | 90 | 0.9 | 1.7 | 0.00 | 0.00 | 0.00 | 68 | 1012.9 |
| 20260503041039 | 66 | 90 | 0.9 | 2.6 | 0.00 | 0.00 | 0.00 | 68 | 1012.9 |
| 20260503040537 | 66 | 243 | 0.9 | 2.6 | 0.00 | 0.00 | 0.00 | 68 | 1012.8 |
| 20260503040044 | 67 | 220 | 1.7 | 2.6 | 0.00 | 0.00 | 0.00 | 69 | 1012.7 |
| 20260503035536 | 68 | 243 | 0.9 | 1.7 | 0.00 | 0.00 | 0.00 | 63 | 1012.6 |
| 20260503035040 | 68 | 90 | 0.9 | 2.6 | 0.00 | 0.00 | 0.00 | 63 | 1012.5 |
| 20260503034550 | 68 | 340 | 0.0 | 2.6 | 0.00 | 0.00 | 0.00 | 63 | 1012.4 |
| 20260503034035 | 68 | 34 | 0.9 | 3.5 | 0.00 | 0.00 | 0.00 | 63 | 1012.3 |
| 20260503033536 | 68 | 30 | 1.7 | 3.5 | 0.00 | 0.00 | 0.00 | 63 | 1012.3 |
| 20260503033039 | 68 | 90 | 1.7 | 2.6 | 0.00 | 0.00 | 0.00 | 63 | 1012.2 |
| 20260503032537 | 69 | 90 | 1.7 | 2.6 | 0.00 | 0.00 | 0.00 | 62 | 1012.2 |
| 20260503032034 | 69 | 337 | 0.9 | 5.2 | 0.00 | 0.00 | 0.00 | 62 | 1012.0 |
| 20260503031555 | 70 | 90 | 1.7 | 5.2 | 0.00 | 0.00 | 0.00 | 60 | 1012.0 |
| 20260503031038 | 70 | 90 | 1.7 | 2.6 | 0.00 | 0.00 | 0.00 | 60 | 1011.9 |
| 20260503030538 | 71 | 90 | 1.7 | 2.6 | 0.00 | 0.00 | 0.00 | 59 | 1011.9 |
| 20260503030049 | 71 | 0 | 0.9 | 3.5 | 0.00 | 0.00 | 0.00 | 59 | 1011.8 |
| 20260503025536 | 71 | 339 | 1.7 | 3.5 | 0.00 | 0.00 | 0.00 | 57 | 1011.9 |
| 20260503025035 | 72 | 90 | 1.7 | 3.5 | 0.00 | 0.00 | 0.00 | 57 | 1011.8 |
| 20260503024548 | 72 | 90 | 0.9 | 3.5 | 0.00 | 0.00 | 0.00 | 56 | 1011.8 |
| 20260503024037 | 72 | 337 | 1.7 | 3.5 | 0.00 | 0.00 | 0.00 | 56 | 1011.7 |
| 20260503023537 | 73 | 90 | 0.9 | 3.5 | 0.00 | 0.00 | 0.00 | 56 | 1011.7 |
| 20260503023045 | 73 | 268 | 0.9 | 3.5 | 0.00 | 0.00 | 0.00 | 54 | 1011.7 |
| 20260503022536 | 73 | 90 | 0.9 | 3.5 | 0.00 | 0.00 | 0.00 | 54 | 1011.7 |
| 20260503022036 | 74 | 90 | 0.9 | 3.5 | 0.00 | 0.00 | 0.00 | 54 | 1011.6 |
| 20260503021549 | 74 | 90 | 0.9 | 4.3 | 0.00 | 0.00 | 0.00 | 53 | 1011.6 |
| 20260503021036 | 74 | 355 | 1.7 | 4.3 | 0.00 | 0.00 | 0.00 | 53 | 1011.6 |
| 20260503020538 | 74 | 90 | 1.7 | 4.3 | 0.00 | 0.00 | 0.00 | 52 | 1011.6 |
| 20260503020056 | 75 | 90 | 2.6 | 5.2 | 0.00 | 0.00 | 0.00 | 51 | 1011.6 |
| 20260503015537 | 75 | 337 | 2.6 | 5.2 | 0.00 | 0.00 | 0.00 | 50 | 1011.6 |
| 20260503015036 | 75 | 90 | 1.7 | 8.7 | 0.00 | 0.00 | 0.00 | 51 | 1011.6 |
| 20260503014553 | 75 | 10 | 0.9 | 8.7 | 0.00 | 0.00 | 0.00 | 50 | 1011.6 |
| 20260503014033 | 76 | 12 | 3.5 | 8.7 | 0.00 | 0.00 | 0.00 | 50 | 1011.6 |
| 20260503013537 | 76 | 9 | 2.6 | 5.2 | 0.00 | 0.00 | 0.00 | 50 | 1011.7 |
| 20260503013048 | 76 | 355 | 2.6 | 6.1 | 0.00 | 0.00 | 0.00 | 49 | 1011.7 |
| 20260503012534 | 76 | 340 | 1.7 | 6.1 | 0.00 | 0.00 | 0.00 | 49 | 1011.7 |
| 20260503012037 | 76 | 90 | 2.6 | 6.1 | 0.00 | 0.00 | 0.00 | 49 | 1011.7 |
| 20260503011557 | 76 | 339 | 1.7 | 7.0 | 0.00 | 0.00 | 0.00 | 49 | 1011.7 |
| 20260503011036 | 76 | 347 | 0.9 | 7.8 | 0.00 | 0.00 | 0.00 | 50 | 1011.7 |
| 20260503010536 | 76 | 339 | 2.6 | 7.8 | 0.00 | 0.00 | 0.00 | 49 | 1011.6 |
| 20260503010044 | 76 | 34 | 1.7 | 7.8 | 0.00 | 0.00 | 0.00 | 52 | 1011.7 |
| 20260503005537 | 76 | 12 | 2.6 | 7.8 | 0.00 | 0.00 | 0.00 | 50 | 1011.7 |
| 20260503005034 | 76 | 5 | 4.3 | 9.6 | 0.00 | 0.00 | 0.00 | 52 | 1011.7 |
| 20260503004606 | 76 | 9 | 5.2 | 9.6 | 0.00 | 0.00 | 0.00 | 51 | 1011.7 |
| 20260503004034 | 76 | 34 | 3.5 | 7.8 | 0.00 | 0.00 | 0.00 | 49 | 1011.7 |
| 20260503003535 | 76 | 340 | 2.6 | 7.0 | 0.00 | 0.00 | 0.00 | 51 | 1011.9 |
| 20260503003048 | 76 | 32 | 2.6 | 7.8 | 0.00 | 0.00 | 0.00 | 51 | 1011.8 |
| 20260503002536 | 76 | 46 | 2.6 | 7.8 | 0.00 | 0.00 | 0.00 | 50 | 1011.8 |
| 20260503002037 | 76 | 90 | 3.5 | 7.8 | 0.00 | 0.00 | 0.00 | 50 | 1011.8 |
| 20260503001549 | 76 | 355 | 1.7 | 6.1 | 0.00 | 0.00 | 0.00 | 51 | 1011.8 |
| 20260503001035 | 76 | 45 | 1.7 | 6.1 | 0.00 | 0.00 | 0.00 | 51 | 1011.9 |
| 20260503000535 | 76 | 24 | 2.6 | 7.8 | 0.00 | 0.00 | 0.00 | 53 | 1011.9 |
| 20260502235535 | 76 | 349 | 4.3 | 7.8 | 0.00 | 0.00 | 0.00 | 52 | 1012.0 |
| 20260502235035 | 75 | 12 | 3.5 | 10.4 | 0.00 | 0.00 | 0.00 | 52 | 1012.1 |
| 20260502234547 | 75 | 30 | 2.6 | 10.4 | 0.00 | 0.00 | 0.00 | 52 | 1012.0 |
| 20260502234035 | 75 | 345 | 4.3 | 10.4 | 0.00 | 0.00 | 0.00 | 55 | 1012.1 |
| 20260502233536 | 75 | 39 | 3.5 | 7.8 | 0.00 | 0.00 | 0.00 | 54 | 1012.2 |
| 20260502233045 | 75 | 18 | 3.5 | 8.7 | 0.00 | 0.00 | 0.00 | 54 | 1012.2 |
| 20260502232538 | 75 | 90 | 3.5 | 8.7 | 0.00 | 0.00 | 0.00 | 53 | 1012.4 |
| 20260502232035 | 75 | 5 | 3.5 | 8.7 | 0.00 | 0.00 | 0.00 | 54 | 1012.4 |
| 20260502231551 | 75 | 12 | 3.5 | 8.7 | 0.00 | 0.00 | 0.00 | 55 | 1012.5 |
| 20260502231037 | 75 | 28 | 1.7 | 8.7 | 0.00 | 0.00 | 0.00 | 54 | 1012.6 |
| 20260502230537 | 75 | 39 | 3.5 | 8.7 | 0.00 | 0.00 | 0.00 | 54 | 1012.7 |
| 20260502230041 | 76 | 90 | 1.7 | 7.0 | 0.00 | 0.00 | 0.00 | 53 | 1012.7 |
| 20260502225535 | 75 | 23 | 2.6 | 7.8 | 0.00 | 0.00 | 0.00 | 53 | 1012.7 |
| 20260502225036 | 75 | 90 | 3.5 | 7.8 | 0.00 | 0.00 | 0.00 | 55 | 1012.8 |
| 20260502224555 | 75 | 342 | 2.6 | 11.3 | 0.00 | 0.00 | 0.00 | 54 | 1012.9 |
| 20260502224035 | 75 | 34 | 2.6 | 11.3 | 0.00 | 0.00 | 0.00 | 52 | 1012.9 |
| 20260502223535 | 76 | 3 | 3.5 | 11.3 | 0.00 | 0.00 | 0.00 | 54 | 1013.1 |
| 20260502223048 | 75 | 90 | 1.7 | 7.0 | 0.00 | 0.00 | 0.00 | 54 | 1013.0 |
| 20260502222536 | 75 | 10 | 1.7 | 8.7 | 0.00 | 0.00 | 0.00 | 53 | 1013.0 |
| 20260502222035 | 75 | 9 | 2.6 | 8.7 | 0.00 | 0.00 | 0.00 | 54 | 1013.1 |
| 20260502221551 | 75 | 55 | 3.5 | 8.7 | 0.00 | 0.00 | 0.00 | 52 | 1013.1 |
| 20260502221035 | 74 | 145 | 0.9 | 8.7 | 0.00 | 0.00 | 0.00 | 54 | 1013.1 |
| 20260502220535 | 74 | 90 | 1.7 | 8.7 | 0.00 | 0.00 | 0.00 | 53 | 1013.2 |
| 20260502220050 | 74 | 90 | 4.3 | 7.8 | 0.00 | 0.00 | 0.00 | 55 | 1013.2 |
| 20260502215535 | 75 | 30 | 1.7 | 7.0 | 0.00 | 0.00 | 0.00 | 54 | 1013.2 |
| 20260502215034 | 75 | 268 | 0.9 | 5.2 | 0.00 | 0.00 | 0.00 | 55 | 1013.4 |
| 20260502214549 | 74 | 149 | 1.7 | 5.2 | 0.00 | 0.00 | 0.00 | 54 | 1013.4 |
| 20260502214036 | 74 | 90 | 1.7 | 5.2 | 0.00 | 0.00 | 0.00 | 55 | 1013.5 |
| 20260502213536 | 74 | 34 | 1.7 | 5.2 | 0.00 | 0.00 | 0.00 | 56 | 1013.5 |
| 20260502213040 | 73 | 171 | 0.9 | 7.0 | 0.00 | 0.00 | 0.00 | 56 | 1013.6 |
| 20260502212537 | 73 | 17 | 3.5 | 7.0 | 0.00 | 0.00 | 0.00 | 57 | 1013.6 |
| 20260502212036 | 72 | 90 | 0.9 | 7.8 | 0.00 | 0.00 | 0.00 | 57 | 1013.7 |
| 20260502211546 | 72 | 55 | 2.6 | 7.8 | 0.00 | 0.00 | 0.00 | 58 | 1013.8 |
| 20260502211037 | 72 | 12 | 1.7 | 8.7 | 0.00 | 0.00 | 0.00 | 59 | 1013.7 |
| 20260502210535 | 72 | 25 | 4.3 | 8.7 | 0.00 | 0.00 | 0.00 | 56 | 1013.7 |
| 20260502210045 | 72 | 340 | 0.9 | 7.0 | 0.00 | 0.00 | 0.00 | 57 | 1013.9 |
| 20260502205537 | 72 | 74 | 2.6 | 7.0 | 0.00 | 0.00 | 0.00 | 55 | 1013.9 |
| 20260502205036 | 71 | 106 | 1.7 | 7.8 | 0.00 | 0.00 | 0.00 | 58 | 1013.9 |
| 20260502204549 | 71 | 141 | 2.6 | 8.7 | 0.00 | 0.00 | 0.00 | 57 | 1014.0 |
| 20260502204035 | 71 | 40 | 4.3 | 8.7 | 0.00 | 0.00 | 0.00 | 57 | 1014.0 |
| 20260502203535 | 71 | 213 | 1.7 | 7.8 | 0.00 | 0.00 | 0.00 | 57 | 1014.1 |
| 20260502203048 | 71 | 39 | 1.7 | 7.8 | 0.00 | 0.00 | 0.00 | 57 | 1014.1 |
| 20260502202538 | 71 | 90 | 2.6 | 7.8 | 0.00 | 0.00 | 0.00 | 57 | 1014.1 |
| 20260502202036 | 71 | 257 | 0.9 | 5.2 | 0.00 | 0.00 | 0.00 | 56 | 1014.2 |
| 20260502201542 | 71 | 0 | 0.9 | 5.2 | 0.00 | 0.00 | 0.00 | 56 | 1014.2 |
| 20260502201036 | 71 | 3 | 2.6 | 4.3 | 0.00 | 0.00 | 0.00 | 55 | 1014.4 |
| 20260502200536 | 72 | 112 | 1.7 | 7.0 | 0.00 | 0.00 | 0.00 | 53 | 1014.4 |
| 20260502200048 | 73 | 45 | 3.5 | 7.0 | 0.00 | 0.00 | 0.00 | 52 | 1014.4 |
| 20260502195536 | 75 | 60 | 1.7 | 4.3 | 0.00 | 0.00 | 0.00 | 50 | 1014.5 |
| 20260502195035 | 75 | 110 | 1.7 | 2.6 | 0.00 | 0.00 | 0.00 | 52 | 1014.6 |
| 20260502194552 | 74 | 114 | 1.7 | 2.6 | 0.00 | 0.00 | 0.00 | 53 | 1014.6 |
| 20260502194036 | 73 | 122 | 0.9 | 2.6 | 0.00 | 0.00 | 0.00 | 54 | 1014.7 |
| 20260502193536 | 72 | 114 | 1.7 | 2.6 | 0.00 | 0.00 | 0.00 | 54 | 1014.7 |